Погода в Посевной

Россия / Новосибирская область     54°17′59″N   83°19′48″E
темп.,
°C
ветер,
м/с
пор.,
м/с
влажн.,
%
обл.,
%
осадки,
мм/ч
давл.,
гПа
погр.,
м
18 августа, чт
чт1801:00+7сз33945 1.5 101143
04:00+5з22935 0.0 101125
07:00+5юз229363 0.0 101237
10:00+9юз2385100 0.1 1013182
13:00+14ююз335467 0.3 10121408
16:00+13з336392 1.1 1012736
19:00+12зюз2269100 1.9 1013233
22:00+8з118198 0.8 101310
19 августа, пт
пт1901:00+7сз118797 0.8 101310
04:00+7сз228958 0.0 101324
07:00+7сз229082 0.0 101436
10:00+10зюз227794 0.0 1014361
13:00+14з445859 0.4 1013907
16:00+16зсз5441100 0.1 10122128
19:00+13сз5562100 0.2 1013892
22:00+8сз3595100 0.0 101590
20 августа, сб
сб2001:00+7з129993 0.0 101611
04:00+7зюз229866 0.0 101720
07:00+9юз129599 0.0 101780
10:00+11юз228797 0.1 1018322
13:00+16зсз115853 0.1 10181239
16:00+17всв224540 0.1 10171661
19:00+17в224789 0.1 1017536
22:00+14юв1157100 0.0 101810
21 августа, вс
вс2101:00+13сз1163100 0.0 101812
04:00+12сз2273100 0.0 101725
07:00+12ссз2480100 0.0 1018135
10:00+14ссз2374100 0.1 1018247
13:00+17сз3448100 0.1 10181156
16:00+18сз5543100 0.0 10171674
19:00+17ссз564899 0.0 1017939
22:00+12с2479100 0.1 1019113
22 августа, пн
пн2201:00+11сз3595100 0.4 1019319
04:00+10ссв4694100 0.1 1020329
07:00+8с4693100 0.3 1021323
10:00+11ссв46690 0.0 1023703
13:00+14ссв4450100 0.0 10231632
16:00+14ссв4547100 0.0 10231533
19:00+14ссв3551100 0.0 1024461
22:00+12ссв2358100 0.0 102577